Location: LDNL
(36.4545°S, 141.6685°E)
Time: 13:26:42
(UTC+11:00)

Vanguard 1 - Visible Passes

Search period start: 23 January 2022 00:00
Search period end: 02 February 2022 00:00
Orbit: 652 x 3830 km, 34.2° (Epoch: 22 January)

Date Brightness Start Highest point End Pass type
(mag) Time Alt. Az. Time Alt. Az. Time Alt. Az.
23 Jan 12.6 01:28:40 10° WNW 01:47:30 82° N 02:11:22 10° E visible
23 Jan 12.8 03:52:48 10° W 04:15:34 78° NNW 04:36:28 10° ENE visible
23 Jan 12.6 21:11:12 10° N 21:20:54 28° NE 21:35:26 10° E visible
23 Jan 12.3 23:28:17 10° NW 23:42:46 65° NNE 00:05:28 10° ESE visible
24 Jan 12.7 01:49:49 10° W 02:09:11 84° N 02:32:56 10° E visible
24 Jan 12.8 04:14:15 10° W 04:37:04 73° NNW 04:57:28 10° ENE visible
24 Jan 12.4 21:30:39 10° NNW 21:41:09 36° NE 21:57:57 10° ESE visible
24 Jan 12.4 23:48:57 10° WNW 00:03:56 73° NNE 00:27:13 10° E visible
25 Jan 12.7 02:11:03 10° W 02:30:53 84° N 02:54:26 10° E visible
25 Jan 12.8 04:35:44 10° WSW 04:58:25 66° NNW 05:18:16 10° NE visible
25 Jan 12.2 21:50:32 10° NNW 22:01:36 45° NE 22:20:05 10° ESE visible
26 Jan 12.4 00:09:48 10° WNW 00:25:16 78° NNE 00:48:56 10° E visible
26 Jan 12.7 02:32:18 10° W 02:52:36 82° N 03:15:51 10° ENE visible
26 Jan 12.9 04:57:16 10° WSW 05:19:35 58° NNW 05:38:48 10° NE visible
26 Jan 12.1 22:10:43 10° NW 22:22:14 55° NNE 22:42:02 10° ESE visible
27 Jan 12.4 00:30:45 10° WNW 00:46:45 82° N 01:10:40 10° E visible
27 Jan 12.7 02:53:35 10° W 03:14:14 78° NNW 03:37:08 10° ENE visible
27 Jan 12.9 05:18:56 10° WSW 05:40:34 50° NW 05:59:04 10° NNE visible
27 Jan 12.1 22:31:10 10° NW 22:43:05 64° NNE 23:03:52 10° E visible
28 Jan 12.5 00:51:48 10° W 01:08:19 84° N 01:32:22 10° E visible
28 Jan 12.7 03:14:53 10° W 03:35:45 72° NNW 03:58:14 10° ENE visible
28 Jan 13.0 05:40:49 10° WSW 06:01:22 42° NW 06:18:59 10° NNE visible
28 Jan 12.1 22:51:47 10° WNW 23:04:08 72° NNE 23:25:40 10° E visible
29 Jan 12.5 01:12:54 10° W 01:29:57 84° N 01:54:01 10° E visible
29 Jan 12.7 03:36:14 10° W 03:57:09 66° NNW 04:19:06 10° NE visible
29 Jan 13.2 06:03:03 10° W 06:22:01 33° NW 06:38:26 10° N visible
29 Jan 12.0 20:53:54 10° NNW 21:02:51 42° NE 21:18:23 10° ESE visible
29 Jan 12.1 23:12:33 10° WNW 23:25:21 78° NNE 23:47:29 10° E visible
30 Jan 12.5 01:34:01 10° W 01:51:33 81° N 02:15:33 10° ENE visible
30 Jan 12.8 03:57:38 10° WSW 04:18:23 58° NNW 04:39:42 10° NE visible
30 Jan 11.8 21:14:04 10° NW 21:23:25 52° NNE 21:40:19 10° ESE visible
30 Jan 12.2 23:33:26 10° WNW 23:46:42 82° N 00:09:17 10° E visible
31 Jan 12.5 01:55:10 10° W 02:13:07 77° NNW 02:36:56 10° ENE visible
31 Jan 12.9 04:19:10 10° WSW 04:39:29 50° NW 04:59:59 10° NNE visible
31 Jan 11.8 21:34:29 10° NW 21:44:11 62° NNE 22:02:09 10° E visible
31 Jan 12.2 23:54:23 10° W 00:08:08 83° N 00:31:05 10° E visible
01 Feb 12.6 02:16:20 10° W 02:34:37 71° NNW 02:58:08 10° ENE visible
01 Feb 13.0 04:40:55 10° W 05:00:26 42° NW 05:19:54 10° NNE visible
01 Feb 11.8 21:55:05 10° WNW 22:05:07 70° NNE 22:23:57 10° E visible
